Back to catalog

STARLINK-37326

AliveCommunicationsVLEO
NORAD 68542·PAYLOAD·🇺🇸 United States

Launched Apr 2, 2026 from Cape Canaveral Space Force Station

Loading…

Next Passes (next 24 hours)

TLE

FreshSource: CelesTrak SupGP

Epoch: Sep 14, 2026, 15:17 UTC

1 68542C 26070A   26257.63729167  .00036407  00000+0  10754-2 0  2578
2 68542  53.1591 201.4103 0001297  98.1854 250.0634 15.34379293    13

Track STARLINK-37326 in real time with AllMySat

Download on the App Store